N800C KLIT-KLIT

Flight info

Callsign N800C
Flight time 0h 53m
Altitude VFR
Route VFR PAT
Aircraft C310/L-DOV/C

Departure

Time 2026-04-23 23:05
Airport Bill & Hillary Clinton National Airport/Adams Field (KLIT)

Arrival

Time 2026-04-23 23:58
Airport Bill & Hillary Clinton National Airport/Adams Field (KLIT)
Time Latitude Longitude Altitude Speed Heading
2026-04-23 23:01 34.73089 -92.24040 264 ft 0 kts 92°
2026-04-23 23:02 34.73104 -92.23973 263 ft 13 kts 27°
2026-04-23 23:02 34.73233 -92.23967 262 ft 24 kts
2026-04-23 23:02 34.73372 -92.23964 262 ft 17 kts
2026-04-23 23:02 34.73510 -92.23959 261 ft 21 kts
2026-04-23 23:03 34.73668 -92.23953 261 ft 27 kts
2026-04-23 23:03 34.73850 -92.23947 262 ft 17 kts
2026-04-23 23:03 34.73959 -92.23937 262 ft 12 kts 36°
2026-04-23 23:03 34.73975 -92.23902 262 ft 0 kts 91°
2026-04-23 23:04 34.73974 -92.23881 261 ft 12 kts 94°
2026-04-23 23:04 34.73908 -92.23807 260 ft 29 kts 185°
2026-04-23 23:04 34.73492 -92.23826 261 ft 85 kts 181°
2026-04-23 23:04 34.72833 -92.23846 494 ft 101 kts 182°
2026-04-23 23:05 34.72085 -92.23861 817 ft 111 kts 185°
2026-04-23 23:05 34.71412 -92.24064 1113 ft 100 kts 227°
2026-04-23 23:05 34.71394 -92.24976 1100 ft 117 kts 272°
2026-04-23 23:05 34.71551 -92.25947 1141 ft 119 kts 279°
2026-04-23 23:06 34.72174 -92.26530 1287 ft 132 kts
2026-04-23 23:06 34.73152 -92.26441 1214 ft 144 kts
2026-04-23 23:06 34.74145 -92.26376 1222 ft 137 kts
2026-04-23 23:06 34.75113 -92.26309 1185 ft 139 kts 10°
2026-04-23 23:07 34.75721 -92.25637 1032 ft 114 kts 95°
2026-04-23 23:07 34.75739 -92.24701 949 ft 114 kts 98°
2026-04-23 23:07 34.75591 -92.23851 938 ft 89 kts 156°
2026-04-23 23:07 34.74985 -92.23786 675 ft 95 kts 185°
2026-04-23 23:08 34.74366 -92.23806 416 ft 86 kts 182°
2026-04-23 23:08 34.73757 -92.23817 259 ft 80 kts 182°
2026-04-23 23:08 34.73167 -92.23833 357 ft 94 kts 182°
2026-04-23 23:08 34.72454 -92.23852 669 ft 109 kts 185°
2026-04-23 23:09 34.71712 -92.23897 1161 ft 99 kts 193°
2026-04-23 23:09 34.71437 -92.24648 1248 ft 123 kts 269°
2026-04-23 23:09 34.71567 -92.25712 1290 ft 130 kts 272°
2026-04-23 23:09 34.71963 -92.26664 1315 ft 139 kts 327°
2026-04-23 23:10 34.72925 -92.26816 1268 ft 141 kts
2026-04-23 23:10 34.73908 -92.26788 1257 ft 140 kts
2026-04-23 23:10 34.74859 -92.26745 1181 ft 135 kts
2026-04-23 23:10 34.75784 -92.26664 1082 ft 129 kts 19°
2026-04-23 23:11 34.76218 -92.25884 971 ft 116 kts 92°
2026-04-23 23:11 34.76300 -92.24888 931 ft 118 kts 95°
2026-04-23 23:11 34.76115 -92.24080 972 ft 96 kts 148°
2026-04-23 23:11 34.75472 -92.23765 794 ft 108 kts 182°
2026-04-23 23:12 34.74765 -92.23784 610 ft 97 kts 185°
2026-04-23 23:12 34.74131 -92.23805 332 ft 88 kts 184°
2026-04-23 23:12 34.73573 -92.23823 261 ft 70 kts 182°
2026-04-23 23:12 34.72991 -92.23845 406 ft 88 kts 183°
2026-04-23 23:13 34.72353 -92.23857 642 ft 93 kts 185°
2026-04-23 23:13 34.71703 -92.23869 901 ft 90 kts 187°
2026-04-23 23:13 34.71249 -92.24388 1004 ft 119 kts 264°
2026-04-23 23:13 34.71308 -92.25451 1190 ft 125 kts 275°
2026-04-23 23:14 34.71906 -92.26268 1327 ft 152 kts 338°
2026-04-23 23:14 34.73011 -92.26360 1319 ft 167 kts
2026-04-23 23:14 34.74187 -92.26316 1340 ft 169 kts
2026-04-23 23:14 34.75319 -92.26236 1390 ft 156 kts
2026-04-23 23:15 34.76069 -92.25552 1258 ft 135 kts 86°
2026-04-23 23:15 34.76138 -92.24505 1193 ft 108 kts 123°
2026-04-23 23:15 34.75632 -92.23942 990 ft 99 kts 162°
2026-04-23 23:15 34.75005 -92.23769 711 ft 94 kts 180°
2026-04-23 23:16 34.74373 -92.23800 427 ft 86 kts 181°
2026-04-23 23:16 34.73776 -92.23818 261 ft 80 kts 182°
2026-04-23 23:16 34.73237 -92.23836 296 ft 88 kts 182°
2026-04-23 23:16 34.72592 -92.23853 541 ft 98 kts 183°
2026-04-23 23:17 34.71858 -92.23869 748 ft 111 kts 185°
2026-04-23 23:17 34.71101 -92.23891 954 ft 106 kts 191°
2026-04-23 23:17 34.70810 -92.24549 1072 ft 110 kts 270°
2026-04-23 23:17 34.70949 -92.25491 1086 ft 116 kts 273°
2026-04-23 23:18 34.71440 -92.26250 1207 ft 126 kts 338°
2026-04-23 23:18 34.72299 -92.26272 1202 ft 125 kts
2026-04-23 23:18 34.73177 -92.26220 1153 ft 131 kts
2026-04-23 23:18 34.74098 -92.26183 1144 ft 134 kts
2026-04-23 23:19 34.75019 -92.26154 1114 ft 131 kts
2026-04-23 23:19 34.75886 -92.25980 1004 ft 123 kts 40°
2026-04-23 23:19 34.76219 -92.25114 864 ft 112 kts 91°
2026-04-23 23:19 34.76304 -92.24186 707 ft 111 kts 111°
2026-04-23 23:20 34.75798 -92.23718 716 ft 96 kts 182°
2026-04-23 23:20 34.75125 -92.23779 628 ft 95 kts 182°
2026-04-23 23:20 34.74457 -92.23797 463 ft 96 kts 186°
2026-04-23 23:20 34.73796 -92.23814 263 ft 87 kts 181°
2026-04-23 23:21 34.73222 -92.23834 284 ft 93 kts 185°
2026-04-23 23:21 34.72550 -92.23869 622 ft 103 kts 182°
2026-04-23 23:21 34.71808 -92.23869 939 ft 107 kts 188°
2026-04-23 23:21 34.71321 -92.24391 1064 ft 109 kts 259°
2026-04-23 23:22 34.71398 -92.25350 1105 ft 115 kts 274°
2026-04-23 23:22 34.71556 -92.26298 1133 ft 115 kts 276°
2026-04-23 23:22 34.71750 -92.27249 1179 ft 115 kts 277°
2026-04-23 23:22 34.72264 -92.27959 1277 ft 129 kts 353°
2026-04-23 23:23 34.73193 -92.27846 1194 ft 136 kts
2026-04-23 23:23 34.74141 -92.27679 1221 ft 132 kts
2026-04-23 23:23 34.75032 -92.27541 1305 ft 125 kts 12°
2026-04-23 23:23 34.75913 -92.27354 1216 ft 132 kts
2026-04-23 23:24 34.76845 -92.27242 1221 ft 137 kts
2026-04-23 23:24 34.77806 -92.27172 1184 ft 138 kts
2026-04-23 23:24 34.78713 -92.27111 1163 ft 127 kts
2026-04-23 23:24 34.79588 -92.27076 1159 ft 123 kts
2026-04-23 23:25 34.80424 -92.27034 1143 ft 117 kts
2026-04-23 23:25 34.81133 -92.26675 1101 ft 113 kts 57°
2026-04-23 23:25 34.81589 -92.25898 1142 ft 114 kts 63°
2026-04-23 23:25 34.81992 -92.25072 1139 ft 115 kts 68°
2026-04-23 23:26 34.82384 -92.24203 1162 ft 119 kts 70°
2026-04-23 23:26 34.82783 -92.23296 1176 ft 124 kts 70°
2026-04-23 23:26 34.83183 -92.22329 1224 ft 131 kts 70°
2026-04-23 23:26 34.83591 -92.21319 1207 ft 138 kts 72°
2026-04-23 23:27 34.84034 -92.20260 1191 ft 141 kts 70°
2026-04-23 23:27 34.84464 -92.19199 1177 ft 138 kts 72°
2026-04-23 23:27 34.84868 -92.18152 1175 ft 134 kts 69°
2026-04-23 23:27 34.85262 -92.17151 1186 ft 129 kts 71°
2026-04-23 23:28 34.85645 -92.16167 1177 ft 127 kts 70°
2026-04-23 23:28 34.85695 -92.15178 1137 ft 113 kts 111°
2026-04-23 23:28 34.85443 -92.14317 1143 ft 103 kts 116°
2026-04-23 23:28 34.85176 -92.13515 1156 ft 104 kts 118°
2026-04-23 23:29 34.84885 -92.12680 1179 ft 110 kts 118°
2026-04-23 23:29 34.84583 -92.11796 1184 ft 115 kts 121°
2026-04-23 23:29 34.84256 -92.10883 1182 ft 120 kts 118°
2026-04-23 23:29 34.83846 -92.10027 1182 ft 116 kts 149°
2026-04-23 23:30 34.83085 -92.10026 1183 ft 118 kts 207°
2026-04-23 23:30 34.82371 -92.10548 1215 ft 121 kts 202°
2026-04-23 23:30 34.81609 -92.10986 1181 ft 121 kts 200°
2026-04-23 23:30 34.80839 -92.11377 1186 ft 121 kts 199°
2026-04-23 23:31 34.80062 -92.11786 1203 ft 122 kts 202°
2026-04-23 23:31 34.79398 -92.12364 1301 ft 118 kts 232°
2026-04-23 23:31 34.78943 -92.13239 1223 ft 128 kts 232°
2026-04-23 23:31 34.78384 -92.14065 1300 ft 124 kts 219°
2026-04-23 23:32 34.77752 -92.14760 1362 ft 121 kts 220°
2026-04-23 23:32 34.77140 -92.15468 1233 ft 125 kts 222°
2026-04-23 23:32 34.76530 -92.16233 1184 ft 125 kts 226°
2026-04-23 23:32 34.75961 -92.17019 1058 ft 118 kts 223°
2026-04-23 23:33 34.75430 -92.17706 861 ft 109 kts 221°
2026-04-23 23:33 34.74893 -92.18363 716 ft 110 kts 221°
2026-04-23 23:33 34.74383 -92.19013 608 ft 104 kts 224°
2026-04-23 23:33 34.73909 -92.19612 450 ft 98 kts 223°
2026-04-23 23:34 34.73423 -92.20229 278 ft 101 kts 225°
2026-04-23 23:34 34.73002 -92.20759 259 ft 85 kts 224°
2026-04-23 23:34 34.72576 -92.21357 453 ft 99 kts 224°
2026-04-23 23:34 34.72043 -92.21998 721 ft 115 kts 220°
2026-04-23 23:35 34.71463 -92.22645 1119 ft 108 kts 205°
2026-04-23 23:35 34.70786 -92.22236 1075 ft 133 kts 132°
2026-04-23 23:35 34.70236 -92.21380 1206 ft 127 kts 122°
2026-04-23 23:35 34.70485 -92.20372 1230 ft 142 kts 44°
2026-04-23 23:36 34.71189 -92.19614 1202 ft 128 kts 49°
2026-04-23 23:36 34.71855 -92.18906 1166 ft 126 kts 44°
2026-04-23 23:36 34.72506 -92.18224 1126 ft 121 kts 44°
2026-04-23 23:36 34.72984 -92.17852 1033 ft 124 kts
2026-04-23 23:37 34.73674 -92.18341 752 ft 121 kts 309°
2026-04-23 23:37 34.74171 -92.19102 654 ft 107 kts 279°
2026-04-23 23:37 34.73785 -92.19769 434 ft 103 kts 224°
2026-04-23 23:37 34.73335 -92.20337 258 ft 81 kts 227°
2026-04-23 23:38 34.72958 -92.20831 316 ft 87 kts 224°
2026-04-23 23:38 34.72538 -92.21411 546 ft 99 kts 219°
2026-04-23 23:38 34.71994 -92.22046 822 ft 117 kts 224°
2026-04-23 23:38 34.71387 -92.22611 1124 ft 115 kts 178°
2026-04-23 23:39 34.70750 -92.21961 1276 ft 125 kts 135°
2026-04-23 23:39 34.70735 -92.20950 1233 ft 150 kts 53°
2026-04-23 23:39 34.71507 -92.20181 1242 ft 139 kts 44°
2026-04-23 23:39 34.72257 -92.19442 1155 ft 135 kts 43°
2026-04-23 23:40 34.72937 -92.18727 1229 ft 125 kts 45°
2026-04-23 23:40 34.73656 -92.18184 1020 ft 131 kts 354°
2026-04-23 23:40 34.74306 -92.18810 800 ft 113 kts 275°
2026-04-23 23:40 34.73979 -92.19543 509 ft 98 kts 224°
2026-04-23 23:41 34.73527 -92.20095 284 ft 88 kts 221°
2026-04-23 23:41 34.73149 -92.20571 259 ft 81 kts 224°
2026-04-23 23:41 34.72685 -92.21170 301 ft 114 kts 222°
2026-04-23 23:41 34.72138 -92.21814 789 ft 102 kts 200°
2026-04-23 23:42 34.71546 -92.21360 991 ft 114 kts 136°
2026-04-23 23:42 34.71243 -92.20548 1235 ft 120 kts 74°
2026-04-23 23:42 34.71919 -92.19807 1196 ft 138 kts 39°
2026-04-23 23:42 34.72635 -92.19048 1181 ft 134 kts 49°
2026-04-23 23:43 34.73302 -92.18294 1152 ft 125 kts 47°
2026-04-23 23:43 34.73944 -92.17577 1130 ft 127 kts 49°
2026-04-23 23:43 34.74723 -92.17217 1062 ft 132 kts 323°
2026-04-23 23:43 34.75139 -92.18056 1007 ft 109 kts 248°
2026-04-23 23:44 34.74593 -92.18725 740 ft 117 kts 220°
2026-04-23 23:44 34.74096 -92.19388 548 ft 95 kts 222°
2026-04-23 23:44 34.73643 -92.19949 327 ft 90 kts 223°
2026-04-23 23:44 34.73239 -92.20459 259 ft 70 kts 222°
2026-04-23 23:45 34.72870 -92.20957 351 ft 83 kts 220°
2026-04-23 23:45 34.72424 -92.21493 470 ft 100 kts 221°
2026-04-23 23:45 34.71938 -92.22091 791 ft 97 kts 219°
2026-04-23 23:45 34.71318 -92.21979 1019 ft 113 kts 140°
2026-04-23 23:46 34.70771 -92.21240 1216 ft 123 kts 115°
2026-04-23 23:46 34.71228 -92.20336 1343 ft 143 kts 41°
2026-04-23 23:46 34.71951 -92.19593 1357 ft 132 kts 47°
2026-04-23 23:46 34.72638 -92.18838 1325 ft 132 kts 50°
2026-04-23 23:47 34.73270 -92.18025 1183 ft 133 kts 50°
2026-04-23 23:47 34.74126 -92.18040 976 ft 129 kts 321°
2026-04-23 23:47 34.74302 -92.18912 780 ft 113 kts 248°
2026-04-23 23:47 34.73881 -92.19644 448 ft 100 kts 224°
2026-04-23 23:48 34.73437 -92.20211 266 ft 86 kts 221°
2026-04-23 23:48 34.73054 -92.20701 274 ft 89 kts 223°
2026-04-23 23:48 34.72543 -92.21360 323 ft 124 kts 224°
2026-04-23 23:48 34.71996 -92.22054 1057 ft 97 kts 220°
2026-04-23 23:49 34.70852 -92.21171 1290 ft 133 kts 135°
2026-04-23 23:49 34.70638 -92.20093 1309 ft 162 kts 59°
2026-04-23 23:49 34.71479 -92.19256 1376 ft 149 kts 44°
2026-04-23 23:50 34.72240 -92.18459 1335 ft 141 kts 46°
2026-04-23 23:50 34.72932 -92.17678 1266 ft 131 kts 48°
2026-04-23 23:50 34.73595 -92.16948 1224 ft 128 kts 54°
2026-04-23 23:50 34.74239 -92.16194 1248 ft 128 kts 47°
2026-04-23 23:51 34.74970 -92.15486 1180 ft 136 kts 38°
2026-04-23 23:51 34.75824 -92.15151 1245 ft 132 kts 331°
2026-04-23 23:51 34.76375 -92.15962 1285 ft 140 kts 310°
2026-04-23 23:51 34.76422 -92.16854 1291 ft 124 kts 208°
2026-04-23 23:52 34.75648 -92.17310 967 ft 118 kts 221°
2026-04-23 23:52 34.75171 -92.18054 764 ft 112 kts 225°
2026-04-23 23:52 34.74633 -92.18679 657 ft 105 kts 222°
2026-04-23 23:52 34.74148 -92.19285 536 ft 101 kts 219°
2026-04-23 23:53 34.73694 -92.19885 358 ft 91 kts 220°
2026-04-23 23:53 34.73283 -92.20402 259 ft 80 kts 226°
2026-04-23 23:53 34.72849 -92.20966 394 ft 100 kts 220°
2026-04-23 23:53 34.72314 -92.21586 724 ft 106 kts 222°
2026-04-23 23:54 34.71810 -92.22267 997 ft 112 kts 224°
2026-04-23 23:54 34.71303 -92.23025 1208 ft 119 kts 245°
2026-04-23 23:54 34.70812 -92.23744 1308 ft 108 kts 195°
2026-04-23 23:54 34.70121 -92.23579 1318 ft 112 kts 140°
2026-04-23 23:55 34.69518 -92.23699 1403 ft 109 kts 236°
2026-04-23 23:55 34.69507 -92.24691 1230 ft 124 kts 274°
2026-04-23 23:55 34.69686 -92.25698 1248 ft 120 kts 289°
2026-04-23 23:55 34.70425 -92.26098 1175 ft 128 kts
2026-04-23 23:56 34.71341 -92.26038 1199 ft 136 kts
2026-04-23 23:56 34.72309 -92.25968 1261 ft 142 kts
2026-04-23 23:56 34.73315 -92.25931 1303 ft 146 kts
2026-04-23 23:56 34.74310 -92.25912 1233 ft 143 kts 357°
2026-04-23 23:57 34.75260 -92.25728 1201 ft 133 kts 46°
2026-04-23 23:57 34.75521 -92.24801 1025 ft 115 kts 91°
2026-04-23 23:57 34.75373 -92.23978 803 ft 96 kts 159°
2026-04-23 23:57 34.74729 -92.23791 558 ft 90 kts 185°
2026-04-23 23:58 34.74100 -92.23800 318 ft 90 kts 184°
2026-04-23 23:58 34.73564 -92.23828 261 ft 49 kts 182°
2026-04-23 23:58 34.73402 -92.23853 261 ft 13 kts 245°
2026-04-23 23:58 34.73387 -92.23956 262 ft 13 kts 218°
2026-04-23 23:59 34.73297 -92.23964 262 ft 14 kts 180°
2026-04-23 23:59 34.73253 -92.24010 262 ft 11 kts 337°
2026-04-23 23:59 34.73329 -92.24016 262 ft 10 kts 345°
2026-04-23 23:59 34.73350 -92.24021 261 ft 0 kts